1484694000.78,11791,4.25,73566.5,-17.11,-44.99,-45.27,0,*6D
1484694002.04,11792,4.25,73566.0,-17.11,-44.79,-45.21,0,*66
1484694003.29,11793,4.25,73562.5,-17.11,-44.79,-45.21,0,*67
1484694004.55,11794,4.25,73562.5,-17.11,-44.87,-45.21,0,*61
1484694005.79,11795,4.25,73566.3,-17.13,-44.67,-45.13,0,*6D
1484694007.06,11796,4.25,73562.8,-17.11,-44.79,-45.07,0,*66
1484694008.35,11797,4.25,73564.3,-17.11,-44.67,-45.07,0,*68
1484694009.62,11798,4.25,73564.8,-17.11,-44.79,-45.07,0,*68
1484694010.87,11799,4.25,73564.5,-17.11,-44.99,-45.33,0,*60
1484694012.12,11800,4.25,73564.3,-17.11,-44.79,-45.21,0,*62
1484694013.4,11801,4.25,73564.3,-17.11,-44.79,-45.27,0,*65
1484694014.67,11802,4.25,73562.3,-17.11,-45.07,-45.33,0,*6B
1484694015.92,11803,4.25,73564.3,-17.11,-44.79,-45.21,0,*61
1484694017.18,11804,4.25,73560.8,-17.11,-44.79,-45.21,0,*66
1484694018.43,11805,4.25,73562.8,-17.13,-44.87,-45.27,0,*62
1484694019.68,11806,4.25,73562.8,-17.11,-44.61,-45.21,0,*6D
1484694020.92,11807,4.25,73566.3,-17.09,-44.67,-44.99,0,*61
1484694022.19,11808,4.25,73564.5,-17.11,-44.99,-45.27,0,*62
1484694023.45,11809,4.25,73564.3,-17.11,-44.79,-45.21,0,*6B
1484694024.72,11810,4.25,73562.5,-17.11,-44.87,-45.27,0,*64
1484694026.01,11811,4.25,73560.8,-17.11,-44.67,-45.07,0,*69
1484694027.29,11812,4.25,73564.8,-17.11,-44.99,-45.27,0,*69
1484694028.54,11813,4.19,73560.0,-17.11,-44.79,-45.21,0,*60
1484694029.81,11814,4.25,73562.8,-17.11,-44.67,-44.87,0,*65
1484694031.08,11815,4.25,73564.3,-17.07,-44.61,-44.93,0,*60
1484694032.3,11816,4.25,73564.3,-17.13,-45.13,-45.33,0,*69
1484694033.58,11817,4.25,73560.3,-17.11,-44.79,-45.27,0,*62
1484694034.85,11818,4.25,73566.0,-17.11,-44.99,-45.27,0,*63
1484694036.1,11819,4.25,73566.5,-17.11,-44.99,-45.21,0,*64
1484694037.35,11820,4.25,73562.0,-17.11,-44.79,-45.21,0,*60
1484694038.62,11821,4.25,73562.8,-17.11,-44.99,-45.27,0,*69
1484694039.9,11822,4.25,73566.5,-17.11,-44.99,-45.27,0,*6A
1484694041.17,11823,4.25,73564.5,-17.11,-44.79,-45.07,0,*67
1484694042.45,11824,4.25,73562.8,-17.11,-44.87,-45.27,0,*63
1484694043.7,11825,4.25,73564.5,-17.11,-44.87,-45.21,0,*64
1484694044.98,11826,4.25,73562.8,-17.11,-44.87,-45.27,0,*61
1484694046.26,11827,4.25,73564.5,-17.11,-44.87,-45.27,0,*60
1484694047.48,11828,4.25,73560.5,-17.13,-44.87,-45.13,0,*6A
1484694048.78,11829,4.25,73566.5,-17.11,-44.67,-45.27,0,*60
1484694050.06,11830,4.25,73560.3,-17.11,-44.87,-45.27,0,*66
1484694051.33,11831,4.25,73566.8,-17.11,-44.99,-45.27,0,*68
1484694052.56,11832,4.25,73564.8,-17.13,-44.79,-45.21,0,*61
1484694053.8,11833,4.25,73564.3,-17.11,-44.61,-44.87,0,*66
1484694055.07,11834,4.25,73566.3,-17.09,-44.67,-45.07,0,*67
1484694056.32,11835,4.25,73562.8,-17.11,-44.99,-45.21,0,*6A
1484694057.57,11836,4.25,73562.5,-17.11,-44.87,-45.21,0,*66
1484694058.83,11837,4.25,73560.8,-17.11,-44.87,-45.21,0,*67
1484694060.1,11838,4.25,73566.8,-17.11,-44.99,-45.27,0,*61
1484694061.35,11839,4.19,73560.5,-17.11,-44.79,-45.21,0,*68
1484694062.62,11840,4.25,73566.0,-17.13,-44.73,-45.07,0,*6A
1484694063.89,11841,4.25,73564.8,-17.11,-44.99,-45.27,0,*6F
1484694065.16,11842,4.25,73562.8,-17.11,-44.67,-45.21,0,*6B
1484694066.41,11843,4.25,73564.3,-17.13,-44.93,-45.33,0,*60
1484694067.66,11844,4.25,73566.0,-17.13,-45.07,-45.33,0,*6B
1484694068.91,11845,4.25,73566.5,-17.11,-44.79,-45.21,0,*63
1484694070.16,11846,4.19,73560.3,-17.11,-44.61,-45.21,0,*69
1484694071.45,11847,4.25,73562.8,-17.11,-44.67,-45.07,0,*6A
1484694072.7,11848,4.25,73566.5,-17.11,-44.87,-45.21,0,*6F
1484694073.98,11849,4.25,73564.8,-17.11,-44.79,-45.27,0,*69
1484694075.25,11850,4.25,73566.3,-17.11,-44.99,-45.27,0,*6F
1484694076.53,11851,4.25,73566.8,-17.11,-44.79,-45.27,0,*60
1484694077.76,11852,4.25,73566.0,-17.13,-44.87,-45.13,0,*67
1484694079.01,11853,4.25,73564.3,-17.11,-44.79,-45.21,0,*64
1484694080.28,11854,4.25,73562.5,-17.11,-44.99,-45.27,0,*6B
1484694081.53,11855,4.25,73564.3,-17.11,-44.99,-45.33,0,*6F
1484694082.75,11856,4.25,73566.0,-17.13,-44.99,-45.33,0,*6E
1484694084.0,11857,4.25,73566.5,-17.11,-44.79,-45.21,0,*60
1484694085.28,11858,4.25,73566.3,-17.11,-44.87,-45.27,0,*68
1484694086.53,11859,4.25,73562.8,-17.13,-44.87,-45.27,0,*6B
1484694087.79,11860,4.25,73564.5,-17.11,-44.79,-45.21,0,*64
1484694089.04,11861,4.25,73566.8,-17.11,-44.79,-45.21,0,*65
1484694090.29,11862,4.25,73562.8,-17.13,-44.73,-45.13,0,*6F
1484694091.52,11863,4.25,73566.5,-17.13,-44.87,-45.21,0,*64
1484694092.79,11864,4.25,73560.3,-17.13,-44.93,-45.27,0,*60
1484694094.05,11865,4.19,73560.5,-17.11,-44.87,-45.21,0,*60
1484694095.32,11866,4.25,73562.3,-17.11,-44.67,-45.21,0,*6D
1484694096.57,11867,4.25,73568.8,-17.13,-44.93,-45.33,0,*66
1484694097.82,11868,4.25,73566.3,-17.11,-44.79,-45.21,0,*6C
1484694099.08,11869,4.25,73566.8,-17.11,-44.87,-45.21,0,*6C
1484694100.35,11870,4.25,73562.0,-17.11,-44.79,-45.07,0,*61
1484694101.57,11871,4.25,73564.0,-17.13,-44.87,-45.13,0,*66
1484694102.82,11872,4.25,73566.3,-17.11,-44.61,-44.99,0,*6C
1484694104.09,11873,4.25,73566.5,-17.11,-44.87,-45.27,0,*61
1484694105.35,11874,4.25,73566.8,-17.11,-44.79,-45.21,0,*61
1484694106.63,11875,4.25,73562.5,-17.11,-44.87,-45.27,0,*67
1484694107.9,11876,4.25,73564.3,-17.13,-44.93,-45.27,0,*63
1484694109.18,11877,4.25,73562.0,-17.11,-44.79,-45.27,0,*64
1484694110.43,11878,4.25,73566.8,-17.11,-44.79,-45.21,0,*6D
1484694111.69,11879,4.25,73562.5,-17.11,-44.79,-45.21,0,*6C
1484694112.92,11880,4.25,73566.3,-17.13,-44.67,-45.13,0,*66
1484694114.2,11881,4.25,73564.8,-17.13,-44.93,-45.27,0,*6B
1484694115.45,11882,4.25,73562.5,-17.11,-44.61,-45.21,0,*61
1484694116.72,11883,4.25,73564.3,-17.11,-44.79,-45.07,0,*6D
1484694117.99,11884,4.25,73564.8,-17.11,-45.21,-45.27,0,*64
1484694119.26,11885,4.25,73564.0,-17.11,-44.99,-45.47,0,*61
1484694120.51,11886,4.25,73566.3,-17.13,-44.79,-45.27,0,*68
1484694121.79,11887,4.25,73564.5,-17.11,-44.99,-45.27,0,*65
1484694123.06,11888,4.25,73562.3,-17.13,-45.07,-45.27,0,*6E
1484694124.33,11889,4.25,73566.3,-17.13,-44.93,-45.27,0,*63
1484694125.58,11890,4.25,73564.8,-17.13,-45.07,-45.41,0,*67
1484694126.85,11891,4.25,73564.5,-17.13,-44.93,-45.27,0,*6A
1484694128.13,11892,4.19,73560.3,-17.13,-44.93,-45.27,0,*69
1484694129.37,11893,4.25,73564.5,-17.13,-45.07,-45.33,0,*61
1484694130.65,11894,4.25,73564.3,-17.13,-44.93,-45.27,0,*6F
1484694131.9,11895,4.25,73564.0,-17.11,-44.79,-45.21,0,*6E
1484694133.16,11896,4.19,73560.5,-17.13,-44.87,-45.27,0,*68
1484694134.4,11897,4.25,73566.0,-17.13,-45.07,-45.41,0,*60
1484694135.68,11898,4.25,73566.8,-17.13,-44.93,-45.27,0,*63
1484694136.92,11899,4.25,73564.0,-17.13,-44.73,-45.13,0,*6B
1484694138.18,11900,4.25,73566.0,-17.11,-44.79,-45.21,0,*63
1484694139.45,11901,4.25,73560.5,-17.13,-44.73,-45.27,0,*6C
1484694140.7,11902,4.25,73564.5,-17.13,-44.87,-45.27,0,*64
1484694141.95,11903,4.25,73566.8,-17.13,-44.93,-45.33,0,*65
1484694143.18,11904,4.25,73564.8,-17.13,-44.87,-45.33,0,*67
1484694144.44,11905,4.25,73564.3,-17.13,-44.87,-45.27,0,*63
1484694145.68,11906,4.25,73562.0,-17.11,-44.61,-44.87,0,*61
1484694146.92,11907,4.25,73566.3,-17.11,-44.61,-44.99,0,*6F
1484694148.17,11908,4.25,73562.5,-17.13,-45.07,-45.33,0,*62
1484694149.42,11909,4.25,73562.8,-17.11,-44.79,-45.21,0,*6A
1484694150.7,11910,4.25,73560.3,-17.11,-44.87,-45.27,0,*65
1484694151.98,11911,4.25,73560.0,-17.13,-44.93,-45.27,0,*63
1484694153.2,11912,4.25,73566.8,-17.13,-45.13,-45.33,0,*6C
1484694154.47,11913,4.25,73564.3,-17.13,-44.73,-45.27,0,*6F
1484694155.7,11914,4.25,73564.8,-17.13,-44.87,-45.33,0,*66
1484694156.94,11915,4.25,73566.3,-17.13,-45.07,-45.33,0,*6E
1484694158.17,11916,4.19,73560.5,-17.13,-44.87,-45.13,0,*66
1484694159.42,11917,4.25,73562.5,-17.13,-44.93,-45.33,0,*60
1484694160.69,11918,4.25,73564.8,-17.13,-44.93,-45.27,0,*6A
1484694161.97,11919,4.25,73564.5,-17.13,-44.93,-45.27,0,*6B
1484694163.22,11920,4.25,73564.5,-17.11,-44.87,-45.21,0,*60
1484694164.44,11921,4.25,73570.3,-17.13,-45.13,-45.33,0,*6C
1484694165.68,11922,4.25,73562.8,-17.13,-44.73,-45.13,0,*6A
1484694166.95,11923,4.25,73564.0,-17.13,-44.67,-45.07,0,*6B
1484694168.2,11924,4.25,73566.5,-17.13,-44.87,-45.27,0,*60
1484694169.5,11925,4.25,73564.3,-17.17,-44.93,-45.27,0,*60
1484694170.77,11926,4.25,73564.8,-17.17,-44.93,-45.33,0,*66
1484694172.05,11927,4.25,73566.3,-17.17,-44.87,-45.27,0,*67
1484694173.3,11928,4.25,73564.8,-17.13,-44.87,-45.27,0,*6C
1484694174.56,11929,4.25,73562.5,-17.13,-44.87,-45.27,0,*6D
1484694175.82,11930,4.25,73568.0,-17.13,-44.67,-45.07,0,*69
1484694177.07,11931,4.25,73564.3,-17.13,-44.73,-45.33,0,*6A
1484694178.32,11932,4.25,73568.0,-17.13,-45.07,-45.33,0,*6B
1484694179.57,11933,4.25,73564.3,-17.11,-44.79,-45.21,0,*63
1484694180.82,11934,4.25,73564.3,-17.11,-44.99,-45.33,0,*69
1484694182.09,11935,4.25,73564.8,-17.13,-44.93,-45.27,0,*65
1484694183.34,11936,4.25,73564.3,-17.13,-44.73,-45.13,0,*6F
1484694184.58,11937,4.25,73566.8,-17.13,-45.07,-45.33,0,*6E
1484694185.85,11938,4.25,73564.3,-17.13,-44.73,-45.07,0,*64
1484694187.13,11939,4.25,73564.0,-17.13,-44.93,-45.27,0,*69
1484694188.4,11940,4.25,73566.0,-17.13,-44.93,-45.27,0,*67
1484694189.67,11941,4.25,73564.8,-17.11,-44.99,-45.27,0,*6E
1484694190.93,11942,4.25,73568.8,-17.11,-44.87,-45.21,0,*64
1484694192.15,11943,4.25,73566.0,-17.13,-44.87,-45.13,0,*66
1484694193.4,11944,4.25,73562.3,-17.13,-44.93,-45.33,0,*66
1484694194.67,11945,4.25,73562.0,-17.13,-45.07,-45.27,0,*6E
1484694195.92,11946,4.25,73566.0,-17.13,-44.93,-45.33,0,*64
1484694197.2,11947,4.25,73566.8,-17.13,-45.07,-45.27,0,*6C
1484694198.45,11948,4.25,73566.3,-17.13,-44.87,-45.27,0,*6A
1484694199.72,11949,4.19,73562.5,-17.17,-44.93,-45.33,0,*6F
1484694201.0,11950,4.25,73564.8,-17.11,-44.87,-45.27,0,*61
1484694202.25,11951,4.25,73566.5,-17.13,-44.93,-45.33,0,*62
1484694203.46,11952,4.25,73566.0,-17.13,-45.13,-45.41,0,*6D
1484694204.71,11953,4.25,73564.0,-17.13,-45.07,-45.33,0,*6C
1484694205.95,11954,4.25,73566.8,-17.17,-45.13,-45.41,0,*6F
1484694207.22,11955,4.25,73566.8,-17.17,-45.07,-45.33,0,*6E
1484694208.46,11956,4.25,73566.5,-17.21,-45.13,-45.33,0,*6D
1484694209.75,11957,4.25,73570.8,-17.17,-45.07,-45.27,0,*69
1484694211.05,11958,4.25,73564.3,-17.17,-44.93,-45.27,0,*6A
1484694212.34,11959,4.25,73566.3,-17.17,-44.93,-45.27,0,*6B
1484694213.59,11960,4.25,73564.0,-17.17,-44.87,-45.13,0,*63
1484694214.88,11961,4.25,73564.8,-17.17,-44.93,-45.27,0,*60
1484694216.18,11962,4.25,73564.5,-17.17,-44.93,-45.27,0,*63
1484694217.47,11963,4.25,73564.8,-17.17,-45.07,-45.27,0,*6E
1484694218.72,11964,4.25,73566.5,-17.13,-44.73,-45.13,0,*68
1484694219.99,11965,4.25,73566.0,-17.17,-45.07,-45.61,0,*6A
1484694221.28,11966,4.25,73566.3,-17.17,-44.73,-45.07,0,*6B
1484694222.52,11967,4.25,73566.0,-17.21,-45.21,-45.33,0,*6E
1484694223.79,11968,4.25,73568.3,-17.17,-45.07,-45.33,0,*60
1484694225.03,11969,4.25,73566.8,-17.21,-44.99,-45.33,0,*62
1484694226.29,11970,4.25,73570.5,-17.17,-44.73,-45.13,0,*69
1484694227.56,11971,4.25,73568.8,-17.17,-44.93,-45.33,0,*64
1484694228.86,11972,4.25,73564.5,-17.17,-44.93,-45.27,0,*62
1484694230.13,11973,4.25,73564.0,-17.21,-44.73,-45.33,0,*6D
1484694231.42,11974,4.25,73564.5,-17.17,-45.07,-45.27,0,*68
1484694232.69,11975,4.25,73564.0,-17.21,-44.93,-45.33,0,*65
1484694233.95,11976,4.25,73564.3,-17.21,-44.93,-45.33,0,*66
1484694235.19,11977,4.25,73564.0,-17.21,-44.99,-45.41,0,*68
1484694236.47,11978,4.25,73566.3,-17.17,-45.07,-45.53,0,*67
1484694237.73,11979,4.25,73564.0,-17.17,-45.07,-45.41,0,*65
1484694239.02,11980,4.25,73566.5,-17.17,-44.67,-45.07,0,*66
1484694240.27,11981,4.25,73566.5,-17.21,-44.79,-45.21,0,*69
1484694241.54,11982,4.25,73568.8,-17.17,-44.73,-45.13,0,*64
1484694242.8,11983,4.25,73564.3,-17.17,-45.07,-45.41,0,*60
1484694244.09,11984,4.25,73566.0,-17.17,-45.07,-45.47,0,*61
1484694245.36,11985,4.25,73566.5,-17.21,-44.73,-45.13,0,*66
1484694246.6,11986,4.25,73564.5,-17.21,-45.21,-45.41,0,*64
1484694247.83,11987,4.25,73568.8,-17.21,-45.13,-45.33,0,*61
1484694249.1,11988,4.25,73566.0,-17.17,-44.93,-45.41,0,*67
1484694250.34,11989,4.25,73568.5,-17.21,-44.99,-45.33,0,*6C
1484694251.61,11990,4.25,73564.3,-17.21,-44.93,-45.33,0,*6E
1484694252.88,11991,4.25,73566.8,-17.21,-44.93,-45.41,0,*6A
1484694254.15,11992,4.25,73570.8,-17.17,-44.87,-45.27,0,*69
1484694255.39,11993,4.25,73564.3,-17.21,-45.21,-45.41,0,*60
1484694256.66,11994,4.25,73566.3,-17.21,-44.93,-45.33,0,*6A
1484694257.93,11995,4.25,73566.8,-17.21,-44.93,-45.21,0,*68
1484694259.2,11996,4.19,73564.5,-17.21,-44.93,-45.33,0,*68
1484694260.44,11997,4.25,73564.8,-17.21,-44.99,-45.41,0,*66
1484694261.73,11998,4.25,73564.5,-17.17,-44.93,-45.27,0,*66
1484694262.97,11999,4.25,73566.3,-17.21,-44.99,-45.41,0,*68
1484694264.21,12000,4.25,73568.3,-17.21,-44.79,-45.13,0,*6B
1484694265.48,12001,4.25,73566.3,-17.21,-44.73,-44.99,0,*63
1484694266.74,12002,4.25,73564.8,-17.21,-44.93,-45.33,0,*6F
1484694268.01,12003,4.25,73566.5,-17.21,-44.73,-45.21,0,*63
1484694269.28,12004,4.25,73566.8,-17.17,-44.93,-45.33,0,*6C
1484694270.55,12005,4.25,73566.0,-17.21,-44.93,-45.21,0,*6B
1484694271.82,12006,4.25,73568.8,-17.21,-44.73,-45.21,0,*66
1484694273.06,12007,4.25,73566.3,-17.21,-44.99,-45.33,0,*60
1484694274.33,12008,4.25,73566.0,-17.21,-44.73,-44.99,0,*6A
1484694275.57,12009,4.25,73566.0,-17.21,-44.79,-45.33,0,*60
1484694276.84,12010,4.25,73564.3,-17.21,-44.93,-45.21,0,*6F
1484694278.09,12011,4.25,73570.3,-17.21,-44.79,-45.33,0,*69
1484694279.36,12012,4.25,73566.5,-17.17,-44.67,-44.87,0,*6E
1484694280.65,12013,4.25,73566.8,-17.17,-44.93,-45.27,0,*6F
1484694281.91,12014,4.25,73570.3,-17.21,-44.73,-45.13,0,*64
1484694283.18,12015,4.19,73562.5,-17.17,-44.53,-44.93,0,*6B
1484694284.45,12016,4.25,73566.0,-17.17,-44.73,-45.13,0,*63
1484694285.75,12017,4.25,73566.8,-17.17,-44.73,-44.93,0,*6B
1484694287.04,12018,4.25,73566.8,-17.17,-44.93,-45.27,0,*64
1484694288.32,12019,4.25,73568.5,-17.17,-44.87,-45.27,0,*60
1484694289.56,12020,4.25,73564.5,-17.17,-44.87,-45.13,0,*6D
1484694290.83,12021,4.25,73568.8,-17.17,-45.07,-45.41,0,*62
1484694292.09,12022,4.25,73568.8,-17.21,-45.13,-45.47,0,*67
1484694293.34,12023,4.19,73566.0,-17.21,-44.79,-45.33,0,*68
1484694294.61,12024,4.25,73568.5,-17.17,-45.07,-45.41,0,*67
1484694295.87,12025,4.25,73570.5,-17.21,-44.93,-45.41,0,*6F
1484694297.14,12026,4.25,73566.8,-17.17,-44.93,-45.33,0,*6C
1484694298.38,12027,4.25,73564.5,-17.21,-44.99,-45.33,0,*62
1484694299.65,12028,4.25,73570.3,-17.17,-44.67,-44.87,0,*67
1484694300.91,12029,4.25,73568.3,-17.21,-44.73,-45.13,0,*6A
1484694302.15,12030,4.25,73566.0,-17.21,-45.13,-45.41,0,*62
1484694303.44,12031,4.25,73566.8,-17.21,-44.93,-45.27,0,*6A
1484694304.74,12032,4.25,73568.3,-17.17,-44.93,-45.27,0,*6C
1484694306.0,12033,4.25,73566.5,-17.17,-44.73,-45.13,0,*64
1484694307.3,12034,4.25,73568.0,-17.17,-44.73,-44.93,0,*6A
1484694308.57,12035,4.25,73566.3,-17.21,-44.93,-45.41,0,*6E
1484694309.86,12036,4.25,73566.8,-17.17,-44.93,-45.27,0,*68
1484694311.13,12037,4.25,73564.0,-17.21,-44.93,-45.41,0,*6C
1484694312.37,12038,4.25,73566.8,-17.21,-44.99,-45.33,0,*6C
1484694313.61,12039,4.25,73564.3,-17.21,-44.61,-44.79,0,*65
1484694314.87,12040,4.25,73570.0,-17.17,-44.53,-45.07,0,*67
1484694316.16,12041,4.25,73570.3,-17.17,-44.73,-45.07,0,*64
1484694317.46,12042,4.25,73570.0,-17.17,-45.07,-45.27,0,*67
1484694318.75,12043,4.25,73568.3,-17.17,-44.67,-45.27,0,*61
1484694320.01,12044,4.25,73568.5,-17.21,-45.13,-45.47,0,*67
1484694321.27,12045,4.25,73564.3,-17.21,-45.13,-45.47,0,*66
1484694322.53,12046,4.25,73570.0,-17.17,-44.73,-45.13,0,*66
1484694323.78,12047,4.25,73570.0,-17.17,-44.87,-45.33,0,*6E
1484694325.02,12048,4.25,73566.3,-17.21,-44.99,-45.33,0,*6B
1484694326.29,12049,4.25,73568.0,-17.21,-45.21,-45.47,0,*6B
1484694327.54,12050,4.25,73566.8,-17.21,-44.79,-45.21,0,*6F
1484694328.83,12051,4.25,73568.0,-17.17,-44.73,-45.27,0,*67
1484694330.09,12052,4.25,73566.5,-17.21,-44.73,-45.13,0,*66
1484694331.34,12053,4.19,73566.3,-17.21,-44.79,-45.21,0,*6C
1484694332.61,12054,4.25,73568.5,-17.17,-44.93,-45.33,0,*69
1484694333.85,12055,4.25,73570.3,-17.21,-44.99,-45.33,0,*67
1484694335.11,12056,4.25,73570.3,-17.21,-45.13,-45.47,0,*64
1484694336.38,12057,4.25,73570.3,-17.21,-45.21,-45.47,0,*64
1484694337.64,12058,4.25,73568.8,-17.17,-45.07,-45.33,0,*69
1484694338.89,12059,4.25,73566.3,-17.21,-44.99,-45.33,0,*6B
1484694340.13,12060,4.25,73568.8,-17.21,-44.99,-45.33,0,*61
1484694341.34,12061,4.25,73566.8,-17.23,-44.99,-45.41,0,*67
1484694342.61,12062,4.25,73570.0,-17.21,-45.21,-45.47,0,*62
1484694343.85,12063,4.25,73568.5,-17.21,-45.21,-45.41,0,*65
1484694345.12,12064,4.25,73568.3,-17.21,-44.93,-45.33,0,*6F
1484694346.35,12065,4.25,73564.5,-17.21,-44.79,-45.13,0,*68
1484694347.62,12066,4.25,73566.3,-17.17,-44.73,-45.13,0,*64
1484694348.86,12067,4.25,73570.8,-17.21,-44.99,-45.33,0,*66
1484694350.1,12068,4.25,73566.3,-17.21,-44.99,-45.33,0,*69
1484694351.34,12069,4.25,73570.8,-17.21,-44.99,-45.41,0,*6D
1484694352.61,12070,4.25,73570.0,-17.21,-44.99,-45.47,0,*63
1484694353.87,12071,4.25,73564.3,-17.21,-45.13,-45.47,0,*61
1484694355.11,12072,4.25,73564.8,-17.21,-44.99,-45.41,0,*67
1484694356.37,12073,4.25,73570.5,-17.23,-45.07,-45.47,0,*64
1484694357.61,12074,4.25,73566.3,-17.25,-44.99,-45.41,0,*65
1484694358.85,12075,4.25,73566.5,-17.23,-45.21,-45.47,0,*66
1484694360.09,12076,4.25,73566.8,-17.23,-45.21,-45.47,0,*65
1484694361.31,12077,4.25,73570.3,-17.23,-44.99,-45.41,0,*60
1484694362.56,12078,4.25,73566.3,-17.23,-44.79,-45.27,0,*61
1484694363.78,12079,4.25,73564.8,-17.23,-44.79,-45.21,0,*66
1484694365.05,12080,4.25,73570.3,-17.23,-45.07,-45.47,0,*68
1484694366.32,12081,4.25,73572.0,-17.25,-44.99,-45.27,0,*6F
1484694367.54,12082,4.25,73568.3,-17.23,-44.87,-45.41,0,*65
1484694368.79,12083,4.25,73566.8,-17.23,-45.27,-45.53,0,*6C
1484694370.03,12084,4.25,73566.0,-17.23,-45.21,-45.47,0,*68
1484694371.25,12085,4.25,73568.8,-17.23,-45.21,-45.53,0,*6C
1484694372.48,12086,4.25,73568.8,-17.23,-44.79,-45.21,0,*66
1484694373.7,12087,4.25,73570.8,-17.23,-44.79,-45.21,0,*67
1484694374.95,12088,4.25,73570.8,-17.23,-45.07,-45.41,0,*66
1484694376.17,12089,4.25,73570.0,-17.23,-44.79,-44.99,0,*6B
1484694377.39,12090,4.25,73568.5,-17.23,-44.87,-45.41,0,*66
1484694378.63,12091,4.25,73568.3,-17.23,-45.21,-45.47,0,*6C
1484694379.85,12092,4.25,73568.0,-17.23,-45.21,-45.41,0,*69
1484694381.09,12093,4.25,73564.8,-17.23,-44.99,-45.47,0,*6C
1484694382.3,12094,4.25,73570.0,-17.23,-45.21,-45.41,0,*6F
1484694383.59,12095,4.25,73570.0,-17.25,-45.07,-45.47,0,*6A
1484694384.81,12096,4.25,73568.5,-17.23,-44.99,-45.41,0,*6F
1484694386.08,12097,4.25,73568.3,-17.25,-44.87,-45.27,0,*67
1484694387.33,12098,4.25,73570.5,-17.23,-44.79,-45.07,0,*6D
1484694388.6,12099,4.25,73564.3,-17.25,-44.79,-45.07,0,*6A
1484694389.82,12100,4.25,73570.0,-17.23,-44.87,-45.41,0,*6E
1484694391.06,12101,4.25,73568.0,-17.23,-44.99,-45.47,0,*66
1484694392.33,12102,4.25,73568.8,-17.25,-44.99,-45.47,0,*63
1484694393.59,12103,4.25,73570.5,-17.23,-45.07,-45.47,0,*62
1484694394.83,12104,4.25,73568.3,-17.23,-45.21,-45.47,0,*61
1484694396.07,12105,4.25,73570.8,-17.23,-45.21,-45.47,0,*60
1484694397.31,12106,4.25,73566.3,-17.23,-45.07,-45.41,0,*61
1484694398.53,12107,4.25,73568.0,-17.23,-44.99,-45.41,0,*66
1484694399.75,12108,4.25,73570.5,-17.23,-44.99,-45.21,0,*6F
1484694401.04,12109,4.25,73568.8,-17.25,-45.07,-45.47,0,*6E
1484694402.31,12110,4.25,73570.5,-17.25,-44.79,-45.27,0,*68
1484694403.56,12111,4.25,73568.3,-17.23,-44.87,-45.27,0,*6E
1484694404.78,12112,4.25,73570.8,-17.23,-44.99,-45.41,0,*62
1484694406.03,12113,4.25,73572.5,-17.25,-44.79,-45.21,0,*6D
1484694407.3,12114,4.25,73568.0,-17.25,-44.87,-45.27,0,*6D
1484694408.54,12115,4.25,73568.0,-17.23,-44.99,-45.47,0,*63
1484694409.78,12116,4.25,73566.5,-17.25,-44.99,-45.41,0,*60
1484694411.01,12117,4.25,73570.0,-17.23,-44.87,-45.21,0,*6E
1484694412.26,12118,4.25,73566.8,-17.23,-44.87,-45.27,0,*67
1484694413.5,12119,4.25,73570.8,-17.23,-44.99,-45.27,0,*69
1484694414.72,12120,4.25,73568.8,-17.23,-45.21,-45.53,0,*62
1484694415.99,12121,4.25,73568.5,-17.25,-45.21,-45.47,0,*60
1484694417.28,12122,4.25,73568.3,-17.25,-45.07,-45.47,0,*67
1484694418.5,12123,4.25,73568.3,-17.23,-44.99,-45.41,0,*60
1484694419.74,12124,4.25,73568.3,-17.25,-44.99,-45.41,0,*61
1484694420.98,12125,4.25,73568.5,-17.23,-44.99,-45.27,0,*66
1484694422.25,12126,4.25,73568.8,-17.25,-45.07,-45.53,0,*66
1484694423.47,12127,4.25,73566.0,-17.23,-44.99,-45.41,0,*64
1484694424.71,12128,4.25,73568.3,-17.25,-44.99,-45.41,0,*6D
1484694425.97,12129,4.25,73568.3,-17.25,-45.07,-45.41,0,*6A
1484694427.24,12130,4.25,73568.3,-17.25,-44.99,-45.27,0,*64
1484694428.51,12131,4.25,73570.0,-17.25,-45.07,-45.41,0,*63
1484694429.77,12132,4.25,73566.5,-17.25,-45.07,-45.41,0,*60
1484694431.01,12133,4.25,73568.5,-17.25,-44.99,-45.21,0,*61
1484694432.25,12134,4.25,73566.5,-17.25,-44.99,-45.41,0,*60
1484694433.5,12135,4.25,73570.5,-17.25,-44.99,-45.41,0,*61
1484694434.74,12136,4.25,73568.5,-17.23,-44.79,-45.27,0,*6A
1484694436.03,12137,4.25,73566.8,-17.25,-45.07,-45.47,0,*63
1484694437.27,12138,4.25,73568.5,-17.23,-45.21,-45.47,0,*6E
1484694438.54,12139,4.25,73570.5,-17.25,-45.07,-45.41,0,*6B
1484694439.81,12140,4.25,73568.3,-17.25,-44.99,-45.27,0,*63
1484694441.03,12141,4.25,73566.5,-17.23,-44.79,-45.41,0,*6A
1484694442.29,12142,4.25,73566.8,-17.25,-45.21,-45.47,0,*65
1484694443.58,12143,4.25,73568.0,-17.25,-45.07,-45.47,0,*60
1484694444.85,12144,4.25,73566.8,-17.25,-45.27,-45.67,0,*67
1484694446.08,12145,4.25,73566.0,-17.27,-45.21,-45.53,0,*65
1484694447.31,12146,4.25,73570.0,-17.27,-44.87,-45.41,0,*68
1484694448.56,12147,4.25,73570.3,-17.27,-44.79,-45.27,0,*68
1484694449.81,12148,4.25,73568.0,-17.27,-44.87,-45.07,0,*64
1484694451.07,12149,4.25,73564.8,-17.27,-45.07,-45.47,0,*68
1484694452.33,12150,4.25,73570.0,-17.25,-44.87,-45.21,0,*6B
1484694453.58,12151,4.25,73570.0,-17.27,-44.79,-45.27,0,*6F
1484694454.85,12152,4.25,73572.0,-17.25,-44.87,-45.27,0,*6F
1484694456.1,12153,4.25,73568.5,-17.27,-44.99,-45.27,0,*63
1484694457.35,12154,4.25,73570.5,-17.27,-44.79,-45.27,0,*6A
1484694458.58,12155,4.25,73564.5,-17.27,-45.21,-45.53,0,*64
1484694459.85,12156,4.25,73570.3,-17.27,-45.27,-45.47,0,*64
1484694461.14,12157,4.25,73568.8,-17.29,-45.07,-45.47,0,*69
1484694462.39,12158,4.25,73568.3,-17.27,-45.07,-45.41,0,*6E
1484694463.61,12159,4.25,73564.5,-17.27,-45.13,-45.53,0,*69
1484694464.86,12160,4.25,73566.3,-17.27,-44.79,-45.27,0,*6D
1484694466.11,12161,4.25,73566.3,-17.27,-44.87,-45.27,0,*6D
1484694467.4,12162,4.25,73564.0,-17.25,-45.07,-45.47,0,*63
1484694468.64,12163,4.25,73568.3,-17.25,-44.99,-45.41,0,*62
1484694469.89,12164,4.25,73566.8,-17.27,-44.99,-45.47,0,*61
1484694471.16,12165,4.25,73568.5,-17.27,-45.27,-45.47,0,*64
1484694472.39,12166,4.25,73568.0,-17.27,-44.79,-45.21,0,*6D
1484694473.62,12167,4.25,73564.0,-17.27,-44.87,-45.21,0,*6D
1484694474.87,12168,4.25,73564.3,-17.27,-44.87,-45.27,0,*64
1484694476.14,12169,4.25,73566.0,-17.29,-44.93,-45.33,0,*6B
1484694477.37,12170,4.25,73568.3,-17.27,-44.79,-45.21,0,*6A
1484694478.6,12171,4.25,73570.0,-17.27,-44.79,-45.21,0,*6B
1484694479.87,12172,4.25,73568.3,-17.29,-44.93,-45.33,0,*61
1484694481.12,12173,4.25,73572.3,-17.27,-44.87,-45.27,0,*6E
1484694482.38,12174,4.25,73566.8,-17.27,-44.87,-45.27,0,*69
1484694483.6,12175,4.25,73564.5,-17.27,-44.99,-45.21,0,*61
1484694484.85,12176,4.25,73564.0,-17.27,-44.67,-45.21,0,*63
1484694486.14,12177,4.25,73566.3,-17.29,-45.27,-45.47,0,*69
1484694487.36,12178,4.25,73564.5,-17.27,-44.61,-44.87,0,*66
1484694488.64,12179,4.25,73566.5,-17.29,-44.87,-45.07,0,*68
1484694489.88,12180,4.25,73564.0,-17.27,-44.67,-44.87,0,*67
1484694491.1,12181,4.25,73568.8,-17.27,-44.79,-44.99,0,*66
1484694492.33,12182,4.25,73564.3,-17.27,-44.79,-45.21,0,*67
1484694493.58,12183,4.25,73566.0,-17.27,-44.79,-45.07,0,*62
1484694494.83,12184,4.25,73566.8,-17.27,-44.79,-45.27,0,*67
1484694496.06,12185,4.25,73568.0,-17.27,-44.87,-45.21,0,*61
1484694497.32,12186,4.25,73570.3,-17.27,-44.87,-45.27,0,*64
1484694498.55,12187,4.19,73562.3,-17.27,-44.79,-45.21,0,*62
1484694499.79,12188,4.25,73566.3,-17.27,-44.79,-45.07,0,*69
1484694501.05,12189,4.25,73566.8,-17.27,-44.87,-45.27,0,*6B
1484694502.28,12190,4.25,73564.5,-17.27,-44.87,-45.21,0,*65